Weather History for Pampa, TX

Change the Weather History Date:

Sunday, May 11, 2014

  Actual Average Record
Temperature  
Mean Temperature 72 °F -  
Max Temperature 94 °F 77 °F 94 °F (2014)
Min Temperature 50 °F 50 °F 35 °F (1981)
Cooling Degree Days 7    
Growing Degree Days 22 (Base 50)    
Moisture  
Dew Point 34 °F    
Average Humidity 29    
Maximum Humidity 68    
Minimum Humidity 6    
Precipitation  
Precipitation 0.00 in - - ()
Sea Level Pressure  
Sea Level Pressure 29.63 in    
Wind  
Wind Speed 20 mph (SSW)    
Max Wind Speed 37 mph    
Max Gust Speed 53 mph    
Visibility 9 miles    
Events      
Averages and records for this station are not official NWS values.
T = Trace of Precipitation, MM = Missing Value Source: NWS Daily Summary

Daily Weather History Graph

Daily Weather History Graph

Search for Another Location

Airport:

Trip Planner

Search our weather history database for the weather conditions in past years. The results will help you decide how hot, cold, wet, or windy it might be!

Date:

Astronomy

May. 11, 2014 Rise Set
Actual Time 6:42 AM CDT 8:38 PM CDT
Civil Twilight 6:14 AM CDT 9:06 PM CDT
Nautical Twilight 5:40 AM CDT 9:41 PM CDT
Astronomical Twilight 5:03 AM CDT 10:17 PM CDT
Moon 5:42 PM CDT (5/11) 4:41 AM CDT (5/11)
Length of Visible Light 14h 52m
Length of Day
13h 56m
Waxing Gibbous, 89% of the Moon is Illuminated
May 11
Waxing Gibbous
May 14
Full
May 21
Last Quarter
May 28
New
Jun 5
First Quarter

Hourly Weather History & Observations

Time (CDT) Temp. Heat Index Dew Point Humidity Pressure Visibility Wind Dir Wind Speed Gust Speed Precip Events Conditions
12:15 AM 68.9 °F - 16.9 °F 14% 29.66 in 10.0 mi SSW 15.0 mph - N/A   Clear
12:35 AM 69.6 °F - 16.2 °F 13% 29.66 in 10.0 mi South 12.7 mph - N/A   Clear
12:55 AM 66.9 °F - 17.2 °F 15% 29.65 in 10.0 mi South 13.8 mph - N/A   Clear
1:15 AM 65.8 °F - 16.7 °F 15% 29.65 in 10.0 mi South 12.7 mph - N/A   Clear
1:35 AM 65.7 °F - 16.2 °F 15% 29.65 in 10.0 mi South 12.7 mph - N/A   Clear
1:55 AM 69.8 °F - 16.2 °F 13% 29.65 in 10.0 mi SSW 16.1 mph 20.7 mph N/A   Clear
2:15 AM 69.8 °F - 15.8 °F 13% 29.64 in 10.0 mi South 16.1 mph - N/A   Clear
2:35 AM 70.2 °F - 16.5 °F 13% 29.64 in 10.0 mi South 16.1 mph - N/A   Clear
2:55 AM 66.7 °F - 15.8 °F 14% 29.64 in 10.0 mi South 15.0 mph - N/A   Clear
3:15 AM 63.5 °F - 16.7 °F 16% 29.64 in 10.0 mi South 13.8 mph - N/A   Clear
3:35 AM 64.4 °F - 18.5 °F 17% 29.64 in 10.0 mi South 17.3 mph - N/A   Clear
3:55 AM 64.6 °F - 23.0 °F 21% 29.64 in 10.0 mi South 15.0 mph - N/A   Clear
4:15 AM 65.3 °F - 28.9 °F 26% 29.64 in 10.0 mi South 15.0 mph - N/A   Clear
4:35 AM 65.5 °F - 30.7 °F 27% 29.64 in 10.0 mi South 18.4 mph - N/A   Clear
4:55 AM 65.1 °F - 32.5 °F 30% 29.64 in 10.0 mi South 15.0 mph - N/A   Clear
5:15 AM 65.5 °F - 36.0 °F 34% 29.64 in 10.0 mi South 19.6 mph - N/A   Clear
5:35 AM 66.9 °F - 39.2 °F 36% 29.65 in 10.0 mi South 20.7 mph - N/A   Clear
5:55 AM 66.9 °F - 41.4 °F 39% 29.65 in 10.0 mi South 20.7 mph - N/A   Clear
6:15 AM 66.9 °F - 43.5 °F 43% 29.65 in 10.0 mi SSW 20.7 mph 25.3 mph N/A   Clear
6:55 AM 65.7 °F - 46.2 °F 49% 29.65 in 10.0 mi SSW 18.4 mph - N/A   Clear
7:15 AM 66.4 °F - 47.7 °F 51% 29.66 in 10.0 mi South 16.1 mph 24.2 mph N/A   Clear
7:35 AM 67.3 °F - 48.6 °F 51% 29.67 in 10.0 mi South 19.6 mph 25.3 mph N/A   Clear
7:55 AM 68.7 °F - 49.8 °F 51% 29.67 in 10.0 mi South 21.9 mph 25.3 mph N/A   Clear
8:15 AM 70.2 °F - 50.9 °F 50% 29.67 in 10.0 mi South 20.7 mph 26.5 mph N/A   Clear
8:35 AM 71.2 °F - 51.1 °F 49% 29.67 in 10.0 mi South 25.3 mph 29.9 mph N/A   Clear
8:55 AM 72.7 °F - 52.0 °F 48% 29.67 in 10.0 mi South 25.3 mph 31.1 mph N/A   Clear
9:15 AM 74.3 °F - 53.2 °F 48% 29.68 in 10.0 mi South 23.0 mph 28.8 mph N/A   Clear
9:55 AM 77.2 °F - 54.5 °F 45% 29.68 in 10.0 mi SSW 24.2 mph 34.5 mph N/A   Clear
10:15 AM 78.3 °F - 55.0 °F 45% 29.68 in 10.0 mi SSW 25.3 mph 33.4 mph N/A   Clear
10:35 AM 79.3 °F - 55.0 °F 43% 29.67 in 10.0 mi South 24.2 mph 32.2 mph N/A   Clear
10:55 AM 79.9 °F - 54.9 °F 42% 29.67 in 10.0 mi South 26.5 mph 34.5 mph N/A   Clear
11:15 AM 81.0 °F 80.7 °F 54.9 °F 41% 29.66 in 10.0 mi South 23.0 mph 32.2 mph N/A   Clear
11:35 AM 82.4 °F 81.6 °F 54.5 °F 38% 29.65 in 10.0 mi SSW 24.2 mph 32.2 mph N/A   Clear
11:55 AM 83.3 °F 82.2 °F 54.7 °F 37% 29.65 in 10.0 mi South 26.5 mph 34.5 mph N/A   Clear
12:15 PM 84.6 °F 83.0 °F 53.2 °F 34% 29.64 in 10.0 mi South 25.3 mph 33.4 mph N/A   Clear
12:35 PM 85.1 °F - 52.9 °F 33% 29.63 in 10.0 mi South 26.5 mph 34.5 mph N/A   Clear
12:55 PM 86.0 °F - 51.8 °F 31% 29.62 in 10.0 mi South 27.6 mph 36.8 mph N/A   Clear
1:15 PM 86.9 °F - 52.7 °F 31% 29.62 in 10.0 mi South 28.8 mph 38.0 mph N/A   Clear
1:35 PM 86.4 °F - 52.2 °F 31% 29.61 in 10.0 mi South 24.2 mph 34.5 mph N/A   Scattered Clouds
1:55 PM 88.3 °F - 50.9 °F 28% 29.60 in 10.0 mi South 29.9 mph 39.1 mph N/A   Scattered Clouds
2:15 PM 89.4 °F - 50.9 °F 27% 29.58 in 10.0 mi South 26.5 mph 35.7 mph N/A   Scattered Clouds
2:35 PM 90.0 °F - 41.7 °F 19% 29.58 in 10.0 mi SSW 28.8 mph 42.6 mph N/A   Scattered Clouds
2:55 PM 91.2 °F - 41.7 °F 18% 29.57 in 10.0 mi South 31.1 mph 39.1 mph N/A   Scattered Clouds
3:15 PM 92.1 °F - 34.7 °F 13% 29.57 in 7.0 mi SSW 33.4 mph 42.6 mph N/A   Scattered Clouds
3:35 PM 91.4 °F - 32.4 °F 12% 29.55 in 10.0 mi SSW 32.2 mph 43.7 mph N/A   Scattered Clouds
3:55 PM 93.4 °F - 29.7 °F 10% 29.54 in 10.0 mi SSW 31.1 mph 42.6 mph N/A   Clear
4:15 PM 94.3 °F - 20.3 °F 7% 29.53 in 7.0 mi SW 29.9 mph 52.9 mph N/A   Clear
4:35 PM 93.9 °F - 16.7 °F 6% 29.53 in 7.0 mi SW 36.8 mph 48.3 mph N/A   Clear
5:15 PM 93.9 °F - 20.5 °F 7% 29.52 in 10.0 mi SSW 27.6 mph 41.4 mph N/A   Clear
5:35 PM 93.6 °F - 22.5 °F 8% 29.52 in 10.0 mi SSW 34.5 mph 46.0 mph N/A   Clear
5:55 PM 93.2 °F - 19.2 °F 7% 29.52 in 10.0 mi SSW 27.6 mph 40.3 mph N/A   Clear
6:15 PM 93.0 °F - 14.9 °F 6% 29.53 in 7.0 mi SSW 33.4 mph 43.7 mph N/A   Clear
6:35 PM 92.5 °F - 14.5 °F 6% 29.53 in 10.0 mi SW 29.9 mph 41.4 mph N/A   Clear
6:55 PM 91.9 °F - 14.2 °F 6% 29.53 in 10.0 mi SW 31.1 mph 38.0 mph N/A   Clear
7:15 PM 90.9 °F - 17.2 °F 7% 29.53 in 7.0 mi SSW 28.8 mph 34.5 mph N/A   Clear
7:35 PM 89.8 °F - 14.5 °F 6% 29.54 in 7.0 mi SSW 33.4 mph 44.9 mph N/A   Clear
7:55 PM 88.7 °F - 13.8 °F 6% 29.55 in 7.0 mi SW 25.3 mph 34.5 mph N/A   Clear
8:15 PM 86.4 °F - 14.7 °F 7% 29.56 in 10.0 mi SW 13.8 mph - N/A   Clear
8:35 PM 83.8 °F - 14.0 °F 7% 29.58 in 7.0 mi SW 11.5 mph - N/A   Clear
8:55 PM 79.7 °F - 14.5 °F 9% 29.59 in 10.0 mi SW 8.1 mph - N/A   Clear
9:15 PM 77.7 °F - 14.7 °F 9% 29.61 in 10.0 mi SSW 8.1 mph - N/A   Clear
9:35 PM 68.4 °F - 42.6 °F 39% 29.64 in 5.0 mi North 34.5 mph 44.9 mph N/A   Haze
9:55 PM 59.9 °F - 44.6 °F 57% 29.68 in 5.0 mi North 26.5 mph 41.4 mph N/A   Haze
10:15 PM 57.4 °F - 43.0 °F 59% 29.72 in 7.0 mi North 25.3 mph 34.5 mph N/A   Mostly Cloudy
10:35 PM 54.5 °F - 42.3 °F 63% 29.74 in 7.0 mi North 25.3 mph 33.4 mph N/A   Mostly Cloudy
10:55 PM 53.2 °F - 41.9 °F 65% 29.74 in 7.0 mi North 25.3 mph 33.4 mph N/A   Scattered Clouds
11:15 PM 52.0 °F - 41.2 °F 67% 29.75 in 7.0 mi North 25.3 mph 32.2 mph N/A   Clear
11:35 PM 50.9 °F - 40.6 °F 68% 29.77 in 7.0 mi North 26.5 mph 36.8 mph N/A   Clear
11:55 PM 50.5 °F - 40.5 °F 68% 29.78 in 10.0 mi North 20.7 mph 28.8 mph N/A   Scattered Clouds